CW3442 Weather Reports


Display with metric or nautical units.
time (UTC)temp
F
wind
direction
speed
MPH
gust
MPH
rain 1hr
in
rain 24hr
in
rain mn
in
humidity
%
barometer
mb
20260831070538 53 213 0.0 0.0 0.00 0.00 0.00 94 1015.6
20260831063528 54 213 0.0 0.0 0.00 0.00 0.00 94 1015.7
20260831060524 54 213 0.0 0.0 0.00 0.00 0.00 94 1015.7
20260831053558 55 213 0.0 0.0 0.00 0.00 0.00 93 1015.7
20260831050530 55 213 0.0 0.0 0.00 0.00 0.00 94 1015.7
20260831043531 55 213 0.0 0.0 0.00 0.00 0.00 93 1015.4
20260831040527 56 213 0.0 0.0 0.00 0.00 0.00 93 1015.2
20260831033542 57 213 0.0 0.0 0.00 0.00 0.00 93 1015.1
20260831030526 57 213 0.0 0.0 0.00 0.00 0.00 93 1014.8
20260831023539 58 213 0.0 0.0 0.00 0.00 0.00 92 1014.6
20260831020529 58 213 0.0 0.0 0.00 0.00 0.00 92 1014.3
20260831013545 59 213 0.0 0.0 0.00 0.00 0.00 92 1013.9
20260831010535 60 213 0.0 0.0 0.00 0.00 0.00 92 1013.5
20260831003530 61 213 0.0 0.0 0.00 0.00 0.00 91 1013.1
20260831000537 62 213 0.0 0.0 0.00 0.00 0.00 91 1012.2
20260830233534 63 213 0.0 0.0 0.00 0.00 0.00 90 1012.0
20260830230530 64 213 0.0 0.0 0.00 0.00 0.00 89 1011.8
20260830223523 64 213 0.0 0.0 0.00 0.00 0.00 89 1011.8
20260830220528 67 213 0.0 0.0 0.00 0.00 0.00 92 1011.0
20260830213541 67 213 0.0 0.0 0.00 0.00 0.00 92 1011.0
20260830210549 68 213 0.0 0.0 0.00 0.00 0.00 92 1010.5
20260830203542 67 236 0.0 0.0 0.00 0.00 0.00 91 1010.4
20260830200536 68 236 0.0 0.0 0.00 0.00 0.00 89 1010.0
20260830193530 73 235 0.0 0.0 0.00 0.00 0.00 77 1010.1
20260830190523 76 273 0.0 0.0 0.00 0.00 0.00 67 1010.1
20260830183522 76 297 0.0 0.0 0.00 0.00 0.00 68 1010.3
20260830180541 73 197 0.0 0.0 0.00 0.00 0.00 74 1010.9
20260830173539 72 200 0.0 0.0 0.00 0.00 0.00 76 1011.3
20260830170532 72 203 1.0 0.0 0.00 0.00 0.00 76 1011.6
20260830163554 71 167 0.0 0.0 0.00 0.00 0.00 78 1011.7
20260830160526 71 204 0.0 0.0 0.00 0.00 0.00 76 1012.0
20260830153558 71 171 0.0 0.0 0.00 0.00 0.00 77 1012.3
20260830150540 72 225 0.0 0.0 0.00 0.00 0.00 75 1012.3
20260830143534 71 164 0.0 0.0 0.00 0.00 0.00 75 1012.0
20260830140525 70 202 0.0 0.0 0.00 0.00 0.00 77 1012.2
20260830133528 68 168 0.0 0.0 0.00 0.00 0.00 79 1012.4
20260830130527 66 180 0.0 0.0 0.00 0.00 0.00 82 1012.5
20260830123525 64 165 0.0 0.0 0.00 0.00 0.00 87 1012.8
20260830120540 63 184 0.0 0.0 0.00 0.00 0.00 88 1012.8
20260830113534 62 184 0.0 0.0 0.00 0.00 0.00 88 1012.8
20260830110547 62 184 0.0 0.0 0.00 0.00 0.00 89 1012.6
20260830103524 61 184 0.0 0.0 0.00 0.00 0.00 89 1012.6
20260830100534 61 184 0.0 0.0 0.00 0.00 0.00 87 1012.5
20260830093525 62 184 0.0 0.0 0.00 0.00 0.00 87 1012.5
20260830090559 62 184 0.0 0.0 0.00 0.00 0.00 85 1012.5
20260830083532 63 184 0.0 0.0 0.00 0.00 0.00 84 1012.5
20260830080532 63 182 0.0 0.0 0.00 0.00 0.00 82 1012.4
20260830073534 64 182 0.0 0.0 0.00 0.00 0.00 81 1012.5